This is the latest recevied weather packets stored in our database for station/object WC4PEM-12. If no packets are shown the sender has not sent any weather packets the latest 10 day(s).
| Time | Temp. | Humidity | Pressure | Rain* | Wind** | Luminosity | Snow |
|---|---|---|---|---|---|---|---|
| 1778080794 | 28.89° C | 62% | 1017.3 hPa | 0 mm | - | - | - |
| 1778080672 | 28.89° C | 62% | 1017.3 hPa | 0 mm | - | - | - |
| 1778080617 | 28.89° C | 64% | 1017.2 hPa | 0 mm | - | - | - |
| 1778080373 | 28.89° C | 64% | 1017.2 hPa | 0 mm | - | - | - |
| 1778080073 | 28.89° C | 63% | 1017.3 hPa | 0 mm | - | - | - |
| 1778079772 | 28.89° C | 65% | 1017.5 hPa | 0 mm | - | - | - |
| 1778079578 | 28.89° C | 66% | 1017.4 hPa | 0 mm | - | - | - |
| 1778079472 | 28.89° C | 66% | 1017.4 hPa | 0 mm | - | - | - |
| 1778079172 | 28.89° C | 67% | 1017.3 hPa | 0 mm | - | - | - |
| 1778078872 | 28.33° C | 66% | 1017.3 hPa | 0 mm | - | - | - |
| 1778078712 | 28.33° C | 67% | 1017.2 hPa | 0 mm | - | - | - |
| 1778078620 | 28.33° C | 71% | 1017.3 hPa | 0 mm | - | - | - |
| 1778078572 | 28.33° C | 67% | 1017.2 hPa | 0 mm | - | - | - |
| 1778078273 | 28.33° C | 71% | 1017.3 hPa | 0 mm | - | - | - |
| 1778078089 | 27.78° C | 72% | 1017.4 hPa | 0 mm | - | - | - |
| 1778077972 | 27.78° C | 72% | 1017.4 hPa | 0 mm | - | - | - |
| 1778077741 | 27.78° C | 73% | 1017.4 hPa | 0 mm | - | - | - |
| 1778077672 | 27.78° C | 73% | 1017.4 hPa | 0 mm | - | - | - |
| 1778077372 | 27.78° C | 73% | 1017.3 hPa | 0 mm | - | - | - |
| 1778077072 | 27.78° C | 73% | 1017.4 hPa | 0 mm | - | - | - |
| 1778076922 | 27.78° C | 74% | 1017.4 hPa | 0 mm | - | - | - |
| 1778076773 | 27.78° C | 74% | 1017.4 hPa | 0 mm | - | - | - |
| 1778076608 | 27.22° C | 76% | 1017.2 hPa | 0 mm | - | - | - |
| 1778076472 | 27.22° C | 76% | 1017.2 hPa | 0 mm | - | - | - |
| 1778076457 | 27.22° C | 76% | 1017.3 hPa | 0 mm | - | - | - |
* Rain latest hour (hover to see other rain measurements)
** Current wind speed in m/s (hover to see current wind gust speed)